Weather in Bol'shoy Karlygan

Russia / Mari El Republic     56°33′53″N   50°03′36″E
temp.,
°C
wind,
m/s
gust,
m/s
humid.,
%
clouds,
%
prec.,
mm/h
press.,
hPa
HPBL,
m
24 july, sat
sat2400:00+14sw357721 0.0 100390
03:00+13wsw498791 0.3 1003249
06:00+14w588913 0.0 1004356
09:00+17nw556899 0.1 10061057
12:00+18nnw6660100 0.3 10071297
15:00+19nnw5645100 0.3 10091946
18:00+17nw365170 0.0 1011266
21:00+12nw496410 0.0 1013165
25 july, sun
sun2500:00+9nnw35545 0.0 101567
03:00+8nnw33595 0.0 101742
06:00+11nw23562 0.0 1019144
09:00+17nw34420 0.0 10191072
12:00+19nw34344 0.0 10202242
15:00+20wnw463375 0.0 10202528
18:00+18nnw354830 0.0 1020285
21:00+13wnw225713 0.0 102111
26 july, mon
mon2600:00+12wsw335998 0.0 102221
03:00+14wsw3754100 0.0 1022172
06:00+14w366395 0.0 1022187
09:00+20nw344368 0.0 10221052
12:00+22wnw3537100 0.0 10222325
15:00+20w4649100 0.0 1021449
18:00+21wnw355011 0.0 1020272
21:00+15wsw34646 0.0 102053
27 july, tue
tue2700:00+13wsw49695 0.0 1019141
03:00+12w4107694 0.0 1019182
06:00+15w49797 0.3 1018283
09:00+21nw68555 0.3 10181103
12:00+21nnw684948 0.0 10171363
15:00+22nnw694899 0.0 10162129
18:00+19nne3560100 0.1 1015147
21:00+14w369374 1.0 1016104
28 july, wed
wed2800:00+13nnw33889 0.1 101647
03:00+10n33862 0.1 101638
06:00+13nnw347859 0.0 1017153
09:00+18w23535 0.0 1018934
12:00+22wnw35395 0.0 10151634
15:00+25w47375 0.0 10132198
18:00+23sw3653100 0.0 1011187
21:00+18w5156990 0.1 1011390